Weather History for EDMA - October, 2012

Change the Weather History Date:

Monday, October 8, 2012

  Actual Average Record
Temperature  
Mean Temperature 44 °F -  
Max Temperature 56 °F 51 °F 71 °F (1997)
Min Temperature 32 °F 38 °F 32 °F (2002)
Degree Days  
Heating Degree Days 21    
Moisture  
Dew Point 41 °F    
Average Humidity 85    
Maximum Humidity 100    
Minimum Humidity 51    
Precipitation  
Precipitation 0.01 in - - ()
Sea Level Pressure  
Sea Level Pressure 30.14 in    
Wind  
Wind Speed 3 mph ()    
Max Wind Speed 7 mph    
Max Gust Speed -    
Visibility 3.0 miles    
Events Fog    
Averages and records for this station are not official NWS values.
T = Trace of Precipitation, MM = Missing Value Source: Averaged Metar Reports

Daily Weather History Graph

Daily Weather History Graph

Search for Another Location

Airport or City:

Trip Planner

Search our weather history database for the weather conditions in past years. The results will help you decide how hot, cold, wet, or windy it might be!

Date:

Astronomy

Oct. 08, 2012 Rise Set
Actual Time 7:26 AM CEST 6:40 PM CEST
Civil Twilight 6:54 AM CEST 7:11 PM CEST
Nautical Twilight 6:18 AM CEST 7:47 PM CEST
Astronomical Twilight 5:41 AM CEST 8:24 PM CEST
Moon No Moon Rise 2:48 PM CEST (10/8)
Length of Visible Light 12h 16m
Length of Day
11h 14m
Waning Gibbous, 49% of the Moon is Illuminated
Oct 8
Waning Gibbous
Oct 15
New
Oct 22
First Quarter
Oct 29
Full
Nov 7
Last Quarter

Hourly Weather History & Observations

Time (CEST) Temp. Windchill Dew Point Humidity Pressure Visibility Wind Dir Wind Speed Gust Speed Precip Events Conditions
12:00 AM 43 °F - 43 °F 98% 30.28 in 7 mi ESE 2.2 mph - - Fog Fog
12:20 AM 42.8 °F - 42.8 °F 100% 30.24 in 1.3 mi East 2.3 mph - N/A   Unknown
12:50 AM 41.0 °F 39.0 °F 41.0 °F 100% 30.21 in 1.1 mi East 3.5 mph - N/A   Unknown
1:00 AM 41 °F - 40 °F 97% 30.28 in 1 mi East 4.5 mph - - Fog Fog
1:20 AM 39.2 °F - 39.2 °F 100% 30.21 in 0.2 mi SE 1.2 mph - N/A   Unknown
1:50 AM 39.2 °F - 39.2 °F 100% 30.24 in 0.2 mi Variable 1.2 mph - N/A   Unknown
2:00 AM 39 °F - 38 °F 97% 30.29 in 0 mi ESE 2.2 mph - - Fog Fog
2:20 AM 39.2 °F 37.0 °F 39.2 °F 100% 30.24 in 0.4 mi SE 3.5 mph - N/A   Unknown
2:50 AM 39.2 °F - 39.2 °F 100% 30.24 in 0.2 mi SE 2.3 mph - N/A   Unknown
3:00 AM 38 °F - 38 °F 98% 30.29 in 0 mi SE 2.2 mph - - Fog Fog
3:20 AM 37.4 °F - 37.4 °F 100% 30.21 in 1.1 mi ESE 2.3 mph - N/A   Unknown
3:50 AM 35.6 °F - 35.6 °F 100% 30.21 in 1.3 mi Variable 2.3 mph - N/A   Unknown
4:00 AM 37 °F - 37 °F 98% 30.29 in 0 mi East 2.2 mph - - Fog Fog
4:20 AM 37.4 °F - 37.4 °F 100% 30.21 in 1.2 mi SSE 1.2 mph - N/A   Unknown
4:50 AM 35.6 °F - 35.6 °F 100% 30.21 in 0.1 mi ESE 1.2 mph - N/A   Unknown
5:20 AM 35.6 °F - 35.6 °F 100% 30.21 in 0.2 mi SSE 2.3 mph - N/A   Unknown
5:50 AM 35.6 °F 32.8 °F 35.6 °F 100% 30.21 in 0.2 mi SE 3.5 mph - N/A   Unknown
6:00 AM 35 °F - 35 °F 99% 30.28 in 0 mi SE 4.5 mph - - Fog Partial Fog
6:20 AM 33.8 °F - 33.8 °F 100% 30.21 in 3.7 mi Variable 2.3 mph - N/A Fog Shallow Fog
6:50 AM 33.8 °F - 33.8 °F 100% 30.18 in 3.7 mi East 2.3 mph - N/A Fog Patches of Fog
7:00 AM 34 °F - 34 °F 100% 30.27 in 0 mi East 2.2 mph - - Fog Partial Fog
7:20 AM 33.8 °F - 33.8 °F 100% 30.18 in 3.7 mi East 2.3 mph - N/A Fog Patches of Fog
7:35 AM 33.8 °F - 33.8 °F 100% 30.18 in - NE 2.3 mph - N/A   Partly Cloudy
7:50 AM 33.8 °F - 33.8 °F 100% 30.18 in 0.7 mi NE 2.3 mph - N/A   Partly Cloudy
8:00 AM 34 °F - 34 °F 99% 30.26 in 0 mi NE 2.2 mph - - Fog Partial Fog
8:20 AM 35.6 °F - 35.6 °F 100% 30.18 in 2.8 mi Variable 2.3 mph - N/A   Partly Cloudy
8:50 AM 37.4 °F - 37.4 °F 100% 30.18 in 2.8 mi SE 2.3 mph - N/A   Partly Cloudy
8:54 AM 39.2 °F - 39.2 °F 100% 30.18 in 3.7 mi Variable 1.2 mph - N/A   Partly Cloudy
9:00 AM 41 °F - 41 °F 98% 30.24 in 4 mi ESE 2.2 mph - - Fog Light Fog
9:20 AM 42.8 °F - 42.8 °F 100% 30.18 in 3.7 mi Variable 2.3 mph - N/A   Partly Cloudy
9:50 AM 42.8 °F 41.1 °F 42.8 °F 100% 30.18 in 5.0 mi SSE 3.5 mph - N/A   Partly Cloudy
10:00 AM 45 °F - 44 °F 94% 30.22 in 6 mi SSE 2.2 mph - -   Clear
10:20 AM 48.2 °F - 46.4 °F 93% 30.18 in 5.0 mi Variable 1.2 mph - N/A   Partly Cloudy
10:50 AM 50.0 °F - 42.8 °F 76% 30.18 in 5.0 mi Variable 2.3 mph - N/A   Partly Cloudy
11:20 AM 51.8 °F - 41.0 °F 67% 30.15 in 5.6 mi ESE 4.6 mph - N/A   Partly Cloudy
11:50 AM 51.8 °F - 41.0 °F 67% 30.15 in 5.6 mi ESE 6.9 mph - N/A   Partly Cloudy
12:00 PM 52 °F - 42 °F 61% 30.17 in 12 mi ESE 6.7 mph - -   Scattered Clouds
12:20 PM 53.6 °F - 39.2 °F 58% 30.15 in 6.2 mi East 5.8 mph - N/A   Partly Cloudy
12:50 PM 53.6 °F - 39.2 °F 58% 30.15 in 6.2 mi ESE 6.9 mph - N/A   Partly Cloudy
1:00 PM 52 °F - 40 °F 55% 30.15 in 22 mi ESE 6.7 mph - -   Scattered Clouds
1:20 PM 53.6 °F - 39.2 °F 58% 30.12 in 6.2 mi East 6.9 mph - N/A   Partly Cloudy
1:50 PM 55.4 °F - 41.0 °F 58% 30.12 in - Variable 4.6 mph - N/A   Clear
2:00 PM 54 °F - 42 °F 55% 30.12 in 28 mi SE 4.5 mph - -   Partly Cloudy
2:20 PM 57.2 °F - 41.0 °F 55% 30.09 in - Variable 4.6 mph - N/A   Clear
2:50 PM 57.2 °F - 39.2 °F 51% 30.09 in - ESE 4.6 mph - N/A   Clear
3:00 PM 55 °F - 42 °F 52% 30.09 in 28 mi East 4.5 mph - -   Scattered Clouds
3:20 PM 55.4 °F - 39.2 °F 54% 30.09 in - ESE 5.8 mph - N/A   Clear
3:50 PM 57.2 °F - 41.0 °F 55% 30.06 in 6.2 mi ESE 5.8 mph - N/A   Partly Cloudy
4:00 PM 56 °F - 43 °F 51% 30.07 in 28 mi ESE 4.5 mph - -   Scattered Clouds
4:20 PM 57.2 °F - 41.0 °F 55% 30.06 in - SE 4.6 mph - N/A   Clear
4:50 PM 55.4 °F - 41.0 °F 58% 30.04 in - SE 4.6 mph - N/A   Clear
5:20 PM 55.4 °F - 42.8 °F 63% 30.04 in - East 5.8 mph - N/A   Clear
5:50 PM 53.6 °F - 42.8 °F 67% 30.04 in - East 4.6 mph - N/A   Clear
6:00 PM 54 °F - 45 °F 63% 30.04 in 28 mi East 4.5 mph - -   Mostly Cloudy
6:20 PM 53.6 °F - 44.6 °F 72% 30.04 in 6.2 mi East 3.5 mph - N/A   Mostly Cloudy
6:50 PM 51.8 °F - 44.6 °F 76% 30.04 in 6.2 mi East 2.3 mph - N/A   Scattered Clouds
7:00 PM 51 °F - 46 °F 78% 30.04 in 25 mi East 2.2 mph - -   Overcast
7:20 PM 50.0 °F - 46.4 °F 87% 30.04 in 6.2 mi ESE 2.3 mph - N/A   Scattered Clouds
7:50 PM 50.0 °F - 46.4 °F 87% 30.01 in 6.2 mi ENE 1.2 mph - N/A   Scattered Clouds
8:00 PM 49 °F - 46 °F 86% 30.04 in 22 mi East 2.2 mph - -   Overcast
8:20 PM 48.2 °F - 46.4 °F 93% 30.01 in - ESE 3.5 mph - N/A   Clear
8:50 PM 48.2 °F - 46.4 °F 93% 30.01 in 6.2 mi ESE 3.5 mph - N/A   Scattered Clouds
9:00 PM 48 °F - 46 °F 91% 30.02 in 22 mi ESE 2.2 mph - -   Overcast
9:20 PM 48.2 °F - 48.2 °F 100% 30.01 in 1.3 mi East 2.3 mph - N/A   Unknown
9:50 PM 48.2 °F - 48.2 °F 100% 29.98 in 1.3 mi East 3.5 mph - N/A   Unknown
10:20 PM 48.2 °F - 48.2 °F 100% 29.98 in 1.3 mi East 3.5 mph - N/A   Unknown
10:50 PM 48.2 °F - 46.4 °F 93% 29.98 in 1.3 mi ESE 3.5 mph - N/A   Unknown
11:20 PM 48.2 °F - 46.4 °F 93% 29.95 in 1.3 mi East 3.5 mph - N/A   Unknown
11:50 PM 46.4 °F - 46.4 °F 100% 29.95 in 1.3 mi Variable 1.2 mph - N/A   Unknown